Regional Weather Roundup
Issued by NWS

Home | Current Version | Previous Version | Graphics & Text | Print | Product List | Glossary On
Versions: 1 2 3 4 5 6 7 8 9 10 11 12 13 14 15 16 17 18 19 20 21 22 23 24 25 26 27 28 29 30 31 32 33 34 35 36 37 38 39 40 41 42 43 44 45 46 47 48 49 50
254
ASUS43 KMKX 091411
RWRWI

WISCONSIN REGIONAL WEATHER ROUNDUP
NATIONAL WEATHER SERVICE MILWAUKEE/SULLIVAN WI
800 AM CST FRI DEC 09 2016

NOTE: "FAIR" INDICATES FEW OR NO CLOUDS BELOW 12,000 FEET WITH NO
SIGNIFICANT WEATHER AND/OR OBSTRUCTIONS TO VISIBILITY.

WIZ001-002-006>008-014>016-023>028-091500-
NORTHWEST WISCONSIN

CITY           SKY/WX    TMP DP  RH WIND       PRES   REMARKS
SUPERIOR ARPT  CLOUDY    15   7  69 NW6       30.52R WCI   7
ASHLAND        CLOUDY    15   9  76 W9        30.48R WCI   3
HAYWARD        CLOUDY    13   7  77 W3        30.47R
SIREN          LGT SNOW  14  11  88 W5        30.51R WCI   6
CUMBERLAND     FLURRIES  12  10  92 W6        30.48R WCI   3
RICE LAKE      CLOUDY    13  10  87 CALM      30.51R
CHETEK         CLOUDY    12   9  88 W3        30.50R
LADYSMITH      CLOUDY    13   8  82 W6        30.48R WCI   4
EAU CLAIRE     CLOUDY    13  10  88 SW6       30.52R WCI   4
MENOMONIE      CLOUDY    15  12  86 W6        30.53R WCI   7
NEW RICHMOND   FLURRIES  14  10  85 W6        30.52R WCI   5
OSCEOLA        LGT SNOW  15  12  85 W3        30.56R
$$

WIZ003>005-009-010-017-018-091500-
NORTH CENTRAL WISCONSIN

CITY           SKY/WX    TMP DP  RH WIND       PRES   REMARKS
MANITOWISH WTR CLEAR      9   6  90 W6        30.37R WCI  -1
ARBOR VITAE    CLEAR     13   9  83 NW5       30.37R WCI   5
WOODRUFF       CLEAR     13   9  83 NW5       30.37R WCI   5
RHINELANDER    CLEAR     10   7  87 W6        30.38R WCI   0
EAGLE RIVER    CLOUDY    14   8  76 NW7       30.36R WCI   3
LAND O LAKES   FLURRIES  14  10  84 W6        30.36S WCI   5
PHILLIPS       CLOUDY     8   5  90 W3        30.41R
TOMAHAWK       PTCLDY     7   4  89 W3        30.40S
MEDFORD        CLOUDY     8   5  86 W6        30.42R WCI  -2
MERRILL        CLEAR     11   8  85 NW5       30.43R WCI   3
$$

WIZ029-030-035-036-043>047-091500-
CENTRAL WISCONSIN

CITY           SKY/WX    TMP DP  RH WIND       PRES   REMARKS
WAUSAU         PTCLDY    13   7  77 W8        30.42R WCI   2
MOSINEE        PTCLDY    12  10  92 W8        30.43S WCI   1
MARSHFIELD     CLEAR      9   5  84 W8        30.44R WCI  -3
STEVENS POINT  CLEAR     12   8  85 W7        30.45R WCI   1
WAUPACA        CLEAR     20   9  62 W6        30.46R WCI  13
WAUTOMA        CLEAR     15  10  80 NW9       30.48R WCI   3
WISC RAPIDS    CLEAR     12   8  84 NW7       30.48R WCI   1
CAMP DOUGLAS   CLEAR     12   9  85 W7        30.50R WCI   2
$$

WIZ011>013-019>022-031-037>040-048>050-091500-
NORTHEAST WISCONSIN

CITY           SKY/WX    TMP DP  RH WIND       PRES   REMARKS
ANTIGO         PTCLDY    11   6  82 NW7       30.39R WCI   0
SHAWANO        CLEAR     21  12  67 W7        30.43R WCI  12
OCONTO         CLEAR     15   8  74 W5        30.42R WCI   8
STURGEON BAY   CLEAR     21  11  65 NW12G18   30.40R WCI   9
GREEN BAY      PTCLDY    22  14  71 NW8       30.43R WCI  12
MANITOWOC      CLOUDY    21  15  78 NW9       30.43R WCI  11
APPLETON       MOCLDY    18   9  68 W8        30.41R WCI   7
CLINTONVILLE   CLEAR     19   9  63 NW8       30.44R WCI   9
OSHKOSH        CLEAR     18  11  74 W8        30.45R WCI   8
$$

WIZ032>034-041-042-053>061-091500-
SOUTHWEST WISCONSIN

CITY           SKY/WX    TMP DP  RH WIND       PRES   REMARKS
LA CROSSE      MOCLDY    20  11  68 NW10      30.54R WCI   9
SPARTA         CLOUDY    19  12  76 NW7       30.52R WCI   9
VIROQUA        CLOUDY    17  12  81 NW6       30.49R WCI   9
BOSCOBEL       CLOUDY    19  13  77 W6        30.55R WCI  11
PRAIRIE DU CHI CLEAR     14   9  80 W5        30.56R WCI   7
PLATTEVILLE    CLEAR     14  12  94 W9        30.53R WCI   2
$$

WIZ056-057-062-063-064-067-068-091500-
SOUTH CENTRAL WISCONSIN

CITY           SKY/WX    TMP DP  RH WIND       PRES   REMARKS
REEDSBURG      CLEAR     16  11  78 NW6       30.50R WCI   8
BARABOO/DELLS  CLEAR     17  11  77 NW8       30.49R WCI   6
LONE ROCK      CLOUDY    20  11  68 NW9       30.53R WCI   9
MINERAL POINT  CLOUDY    19  16  86 W9        30.50R WCI   9
MADISON        MOCLDY    20  10  65 NW6       30.49R WCI  12
MIDDLETON      CLOUDY    21  13  70 NW12      30.49S WCI   9
WATERTOWN      CLEAR     18  13  82 W5        30.48R WCI  11
MONROE         FLURRIES  21  18  86 W10       30.48R WCI  10
JANESVILLE     LGT SNOW  23  18  80 W9        30.49R WCI  13
$$

WIZ051-052-058>065-066-070>072-091500-
SOUTHEAST WISCONSIN

CITY           SKY/WX    TMP DP  RH WIND       PRES   REMARKS
MILWAUKEE      PTCLDY    23  14  68 W13       30.47R WCI  11
WAUKESHA       CLEAR     18  12  79 W14G20    30.47R WCI   4
MILWAUKEE/TIMM CLEAR     19  12  73 W12       30.47R WCI   7
RACINE         CLEAR     21  14  74 W9        30.49R WCI  11
BURLINGTON     PTCLDY    26  20  79 NW9       30.49R WCI  17
KENOSHA        CLEAR     21  15  78 W9        30.48R WCI  11
FOND DU LAC    PTCLDY    18  10  71 W10       30.45R WCI   6
SHEBOYGAN      MOCLDY    19  14  81 W6        30.44R WCI  11
WEST BEND      CLEAR     19  14  79 W10G16    30.45R WCI   8
JUNEAU         CLEAR     17  11  78 W6        30.47R WCI   8
$$

LSZ147-162-091500-
LAKE SUPERIOR

STATION/POSITION TIME  TEMP    WIND        PRES    WAVE
                       AIR SEA DIR/SP/G            HT/PER
                 (UTC) (F)     (DEG/KT/KT) (MB)    (FT/S)
DEVILS ISLAND    1400   18     310/ 14/ 17 1032.9R
PORT WING        1340   17     280/ 12/ 18 1032.2S
SAXON HARBOR     1330   19     290/  8/ 13 1030.8S
$$

LMZ867-665-643>646-091500-
LAKE MICHIGAN

STATION/POSITION TIME  TEMP    WIND        PRES    WAVE
                       AIR SEA DIR/SP/G            HT/PER
                 (UTC) (F)     (DEG/KT/KT) (MB)    (FT/S)
CHAMBERS ISLAND  1330   21     280/ 12/ 16 1028.1R
NORTHPORT PIER   1346   26     320/ 20/ 25 1028.1R
SISTER BAY       1350   25     320/ 23/ 26   N/A
ALGOMA LAKESHORE 1351          320/ 11/ 14   N/A
KEWAUNEE LAKESHO 1348   21     310/  7/ 11 1029.1R
SHEBOYGAN LAKESH 1400   20     260/  8/ 10 1031.8R
PORT WASHINGTON  1330   20     290/  6/  9 1032.2R
MILWAUKEE LAKESH 1350   22     290/ 11/ 14   N/A
KENOSHA   LAKESH 1400   22     290/  9/ 14 1032.2
$$

TC  - TEMPERATURE IN CELSIUS
VSB - VISIBILITY IN STATUTE MILES
WCI - WIND CHILL INDEX
HX  - HEAT INDEX





USA.gov is the U.S. government's official web portal to all federal, state and local government web resources and services.